Location: Bougoudala
(13.2282°N, 4.9477°W)
Time: 13:41:40
(UTC+00:00)

Cosmos 1844 - Pass Details

Date: 29 January 2020
Orbit: 824 x 866 km, 70.9° (Epoch: 24 February)

Event Time Altitude Azimuth Distance (km) Brightness Sun altitude
Rises 19:04:32 0° 175° (S) 3,429 7.0 -11.4°
Reaches altitude 10° 19:07:14 10° 165° (SSE) 2,489 6.2 -12.0°
Maximum altitude 19:12:16 32° 104° (ESE) 1,425 4.4 -13.2°
Enters shadow 19:15:44 17° 52° (NE) 2,002 5.1 -14.0°
